Погода в Сухиничи

Погода в Сухиничи : погода сейчас, прогноз погоды и архив. Всё, что Вы хотите узнать о погоде в Сухиничи!

Хотите узнать прогноз погоды в Сухиничи? Тогда Вам сюда: Погода в Сухиничи

Поиск расширенной информации на нашем сайте:

Другие новости

Новости СМИ2

Главная страница сайта

Новости сайта

03.07.2017

Напоминаем, что на нашем специализированном сайте Метеоцентр.Азия вы можете получить высокодетализированные автоматические прогнозы погоды по пунктам России, СНГ и мира в авиационном формате (включающие направление и скорость ветра, видимость, явления погоды, количество и форму облачности, нижнюю и верхнюю границу облачности).


Погода в Сухиничи - сегодня

Время (UTC), дата Ветер
(°,м/с) 
Видим.   Явления Облачность Т
(°С)
Тd
(°С)
f(%) Тe
(°С)
Pmin
(гПа)
dP
(гПа)
Po
(мм)
O2
(г/м3)
Тmin Tmax R s Состояние
почвы
15 16.06.18 150 (ЮВ) 40000 м    8/8 2000 м средняя 
[Ac As]
+19.9 +8.2 47 +21  1018.7  -0.6  743  278           
21 16.06.18 090 (В) 25000 м    8/4 2000 м средняя, верхняя 
[Ac trans|Ci sp]
+13.7 +8.8 72 +15  1019.6  0.4  743  284           
00 17.06.18 110 (В) 25000 м    4/4 2000 м средняя 
[Ac trans]
+13.5 +7.8 68 +15  1019.9  0.3  744  284           
09 17.06.18 140 (ЮВ) 40000 м    3/3 2000 м средняя 
[Ac trans]
+21.7 +8.6 43 +22  1019  -0.2  744  276           
12 17.06.18 130 (ЮВ) 40000 м    4/0 верхняя 
[Ci sp]
+23.3 +7.6 36 +23  1017.9  -0.9  743  275           
15 17.06.18 100 (В) 40000 м    ясно 
+23.6 +7.5 36 +24  1016.9  -1  742  274           
21 17.06.18 тихо ()   24000 м    ясно 
+14.7 +9.8 72 +16  1017.9  0.3  742  282           
00 18.06.18 090 (В) 18000 м    3/0 верхняя 
[Ci fib]
+12.9 +10.3 84 +16  1018  742  284           
09 18.06.18 150 (ЮВ) 40000 м    6/4 1000 м верхняя 
[Cu hum|Ci fib]
+25.1 +8.5 35 +25  1016.5  -0.2  742  272           
12 18.06.18 340 (С) 40000 м    8/6 1000 м верхняя 
[Cu hum|Ci fib]
+26.3 +9 34 +26  1015.7  -0.6  742  271           
15 18.06.18 240 (ЮЗ) 40000 м    8/5 1000 м верхняя 
[Cu hum|Ci fib]
+26.1 +9.5 35 +27  1014.8  -0.9  741  271           
21 18.06.18 260 (З) 24000 м    5/3 2000 м средняя, верхняя 
[Ac trans|Ci fib]
+17.7 +12.3 71 +24  1015.7  0.4  741  278           
00 19.06.18 230 (ЮЗ) 20000 м    9/9 600 м 
[Sc]
+16.5 +13.3 81 +24  1015.6  0.1  741  279           
09 19.06.18 290 (З) 40000 м    9/8 600 м верхняя 
[Cu med, cong|Ci fib]
+24.9 +13.8 50 +32  1014.1  -0.5  740  271           
12 19.06.18 260 (З) 40000 м    8/5 600 м средняя, верхняя 
[Cu med, cong|Ac trans|Ci fib]
+26.2 +13.1 44 +32  1012.8  -1.2  739  269           
15 19.06.18 260 (З) 40000 м    9/3 600 м средняя, верхняя 
[Cu med, cong|Ac trans|Ci fib]
+26.2 +13 44 +32  1011.3  -1.4  738  269           
21 19.06.18 250 (З) 18000 м    8/3 2000 м средняя, верхняя 
[Ac trans|Ci fib]
+17.1 +14.4 84 +27  1011.5  -0.6  738  277           
00 20.06.18 240 (ЮЗ) 10 км    6/6 2000 м средняя 
[Ac As]
+16.3 +15.2 93 +27  1011.6  0.2  738  277           
09 20.06.18 290 (З) 40000 м    6/6 1000 м 
[Cu hum]
+20.3 +7.7 44 +20  1013.6  -0.2  740  276           
12 20.06.18 290 (З) 40000 м    6/6 600 м 
[Cu hum]
+20.6 +8.2 45 +21  1013.3  -0.2  739  276           
15 20.06.18 280 (З) 40000 м    4/4 1000 м 
[Cu hum]
+21.8 +8 41 +22  1012.5  -0.6  739  274           
21 20.06.18 тихо ()   15000 м    ясно 
+11.9 +9.4 85 +13  1014.7  0.9  740  284           
00 21.06.18 тихо ()   10 км    3/1 2000 м средняя, верхняя 
[Ac trans|Ci fib]
+10 +8.9 93 +10  1015  0.9  740  286           
03 21.06.18 250 (З) 20000 м    ясно 
+13 +9.3 78 +15  1015.5  0.9  740  283  +9.5         
09 21.06.18 280 (З) 40000 м    ясно 
+22.8 +7.4 37 +23  1014.1  -0.8  740  274           
Время (UTC), дата Ветер
(°,м/с) 
Видим.   Явления Облачность Т
(°С)
Тd
(°С)
f(%) Тe
(°С)
Pmin
(гПа)
dP
(гПа)
Po
(мм)
O2
(г/м3)
Тmin Tmax R s Состояние
почвы

Для получения пояснительной информации подведите курсор к названию столбца.

ПОГОДА в Сухиничи - архив

Всё, что Вы хотите узнать о погоде в Сухиничи - удобно и подробно!

Выберите нужную дату (начиная с 1 января 2015* года) и нажмите кнопку "Найти".
Будут отображены архивные сводки погоды по пункту Сухиничи, начиная с указанной даты.


Отображать данные в формате CSV (для использования в таблицах Excel)


Внимание! Наш архив погоды предназначен исключительно для личного некоммерческого использования в познавательных целях. Если Вам необходимы официальные справки о состоянии погоды (для производственных, юридических, коммерческих и т.п. целей), обращайтесь в органы Росгидромета.

*Примечание: данная дата относится к архиву по метеостанциям СССР (Россия, СНГ, Балтия).
Архив по метеостанциям Зарубежной Европы и Азии (кроме Китая) хранится 10 дней, по другим регионам земного шара (Китай, Африка, Америка, Австралия, Океания) - 1 день.

Сухиничи - район местоположения метеостанции


Название, широта, долгота, высота метеостанции:
Сухиничи 54.1°ш. 35.3°д. 238 м над ур. моря [Российская Федерация]

Дополнительная информация

В oтличие oт бoльшинства пoгoдных сайтoв мы публикуем пoдрoбную метеoинфoрмацию в детальнoм прoфессиoнальнoм фoрмате.

Характеристики температуры и влажнoсти вoздуха измеряются на высoте 2 м в тени вдали oт зданий и деревьев.
Скoрoсть ветра измеряется на высoте 10 м (на урoвне рoста челoвека скoрoсть ветра ниже в 1.5-2 раза). Если метеoстанция нахoдится в гoрoде или в лесу, тo скoрoсть ветра занижена на 2-4 м/с пo сравнению с oткрытым местoм. Скoрoсть ветра над акватoриями крупных рек и oзёр, а также на вершинах хoлмoв на 2-5 м/с выше, чем в oбычных услoвиях.
Атмoсфернoе давление в разных тoчках местнoсти мoжет значительнo oтличаться oт давления на метеoстанции, в зависимoсти oт услoвий рельефа (при пoдъёме на 10 м давление пoнижается примернo на 1 мм рт.ст.).